timestamp,surface_pressure_avg,surface_temp_avg,battery_voltage,lat,long
2021-10-01 00:09:01+00:00,253.5048,14.6,12.65,47.84626,-54.09684
2021-10-01 00:19:01+00:00,248.4448,14.6,12.65,47.84626,-54.09684
2021-10-01 00:29:01+00:00,245.268,14.59,12.65,47.84626,-54.09684
2021-10-01 00:39:01+00:00,245.9497,14.6,12.65,47.84626,-54.09684
2021-10-01 00:49:01+00:00,247.0032,14.6,12.65,47.84626,-54.09684
2021-10-01 00:59:01+00:00,243.6248,14.59,12.65,47.84626,-54.09684
2021-10-01 01:09:01+00:00,240.4031,14.6,12.65,47.84626,-54.09684
2021-10-01 01:19:01+00:00,241.5814,14.59,12.65,47.84626,-54.09684
2021-10-01 01:29:01+00:00,240.0364,14.6,12.65,47.84626,-54.09684
2021-10-01 01:39:01+00:00,235.5948,14.6,12.65,47.84626,-54.09684
2021-10-01 01:49:01+00:00,232.7346,14.59,12.65,47.84626,-54.09684
2021-10-01 01:59:01+00:00,234.2997,14.59,12.65,47.84626,-54.09684
2021-10-01 02:09:01+00:00,232.4497,14.6,12.65,47.84626,-54.09684
2021-10-01 02:19:01+00:00,231.8581,14.59,12.57,47.84626,-54.09684
2021-10-01 02:29:01+00:00,234.5431,14.59,12.57,47.84626,-54.09684
2021-10-01 02:39:01+00:00,237.0781,14.59,12.57,47.84626,-54.09684
2021-10-01 02:49:01+00:00,235.7214,14.59,12.57,47.84626,-54.09684
2021-10-01 02:59:01+00:00,236.7531,14.58,12.57,47.84626,-54.09684
2021-10-01 03:09:01+00:00,239.9181,14.59,12.57,47.84626,-54.09684
2021-10-01 03:19:00+00:00,244.7247,14.58,12.57,47.84626,-54.09684
2021-10-01 03:29:00+00:00,247.3748,14.56,12.57,47.84626,-54.09684
2021-10-01 03:39:00+00:00,248.5431,14.55,12.57,47.84626,-54.09684
2021-10-01 03:49:00+00:00,251.5231,14.5,12.57,47.84626,-54.09684
2021-10-01 03:59:00+00:00,257.5397,14.5,12.57,47.84626,-54.09684
2021-10-01 04:09:00+00:00,260.3764,14.5,12.57,47.84626,-54.09684
2021-10-01 04:19:01+00:00,262.3497,14.5,12.57,47.84626,-54.09684
2021-10-01 04:29:01+00:00,266.3914,14.52,12.57,47.84626,-54.09684
2021-10-01 04:39:01+00:00,270.9097,14.54,12.57,47.84626,-54.09684
2021-10-01 04:49:01+00:00,273.2781,14.56,12.57,47.84626,-54.09684
2021-10-01 04:59:01+00:00,277.9247,14.58,12.57,47.84626,-54.09684
2021-10-01 05:09:01+00:00,279.9648,14.59,12.57,47.84626,-54.09684
2021-10-01 05:19:00+00:00,280.1163,14.6,12.57,47.84626,-54.09684
2021-10-01 05:29:00+00:00,282.1164,14.6,12.57,47.84626,-54.09684
2021-10-01 05:39:00+00:00,287.098,14.6,12.57,47.84626,-54.09684
2021-10-01 05:49:00+00:00,288.1348,14.6,12.57,47.84626,-54.09684
2021-10-01 05:59:00+00:00,287.6114,14.6,12.57,47.84626,-54.09684
2021-10-01 06:09:00+00:00,288.5147,14.59,12.57,47.84626,-54.09684
2021-10-01 06:19:01+00:00,290.9697,14.59,12.57,47.84626,-54.09684
2021-10-01 06:29:01+00:00,290.7897,14.59,12.57,47.84626,-54.09684
2021-10-01 06:39:01+00:00,293.3331,14.59,12.57,47.84626,-54.09684
2021-10-01 06:49:01+00:00,297.1047,14.56,12.57,47.84626,-54.09684
2021-10-01 06:59:01+00:00,297.3063,14.57,12.57,47.84626,-54.09684
2021-10-01 07:09:01+00:00,291.4663,14.58,12.57,47.84626,-54.09684
2021-10-01 07:19:01+00:00,291.9864,14.58,12.57,47.84626,-54.09684
2021-10-01 07:29:01+00:00,293.6164,14.57,12.57,47.84626,-54.09684
2021-10-01 07:39:01+00:00,291.993,14.59,12.57,47.84626,-54.09684
2021-10-01 07:49:01+00:00,289.183,14.59,12.57,47.84626,-54.09684
2021-10-01 07:59:01+00:00,290.868,14.58,12.57,47.84626,-54.09684
2021-10-01 08:09:01+00:00,290.0613,14.59,12.57,47.84626,-54.09684
2021-10-01 08:19:00+00:00,287.413,14.59,12.57,47.84626,-54.09684
2021-10-01 08:29:00+00:00,284.0764,14.6,12.57,47.84626,-54.09684
2021-10-01 08:39:00+00:00,283.3148,14.6,12.57,47.84626,-54.09684
2021-10-01 08:49:00+00:00,280.6564,14.6,12.57,47.84626,-54.09684
2021-10-01 08:59:00+00:00,276.7814,14.6,12.57,47.84626,-54.09684
2021-10-01 09:09:00+00:00,275.2281,14.6,12.57,47.84626,-54.09684
2021-10-01 09:19:00+00:00,276.5314,14.6,12.57,47.84626,-54.09684
2021-10-01 09:29:00+00:00,275.1081,14.6,12.57,47.84626,-54.09684
2021-10-01 09:39:00+00:00,274.3698,14.6,12.57,47.84626,-54.09684
2021-10-01 09:49:00+00:00,271.5381,14.6,12.57,47.84626,-54.09684
2021-10-01 09:59:00+00:00,267.7631,14.6,12.57,47.84626,-54.09684
2021-10-01 10:09:00+00:00,262.0331,14.6,12.57,47.84626,-54.09684
2021-10-01 10:19:01+00:00,255.3897,14.6,12.57,47.84626,-54.09684
2021-10-01 10:29:01+00:00,249.9547,14.6,12.57,47.84626,-54.09684
2021-10-01 10:39:01+00:00,250.398,14.6,12.57,47.84626,-54.09684
2021-10-01 10:49:01+00:00,253.7414,14.6,12.57,47.84626,-54.09684
2021-10-01 10:59:01+00:00,249.9647,14.6,12.57,47.84626,-54.09684
2021-10-01 11:09:01+00:00,249.2364,14.6,12.57,47.84626,-54.09684
2021-10-01 11:19:00+00:00,249.8147,14.6,12.57,47.84626,-54.09684
2021-10-01 11:29:00+00:00,246.2648,14.6,12.57,47.84626,-54.09684
2021-10-01 11:39:00+00:00,240.9698,14.6,12.57,47.84626,-54.09684
2021-10-01 11:49:00+00:00,241.2831,14.6,12.57,47.84626,-54.09684
2021-10-01 11:59:00+00:00,239.9131,14.6,12.57,47.84626,-54.09684
2021-10-01 12:09:00+00:00,233.5847,14.6,12.57,47.84626,-54.09684
2021-10-01 12:19:00+00:00,234.7115,14.6,12.65,47.84626,-54.09684
2021-10-01 12:29:00+00:00,246.3031,14.6,12.65,47.84626,-54.09684
2021-10-01 12:39:00+00:00,245.0081,14.6,12.65,47.84626,-54.09684
2021-10-01 12:49:00+00:00,238.3298,14.6,12.65,47.84626,-54.09684
2021-10-01 12:59:00+00:00,239.0814,14.6,12.65,47.84626,-54.09684
2021-10-01 13:09:00+00:00,246.6715,14.6,12.65,47.84626,-54.09684
2021-10-01 13:19:01+00:00,248.0598,14.6,12.73,47.84626,-54.09684
2021-10-01 13:29:01+00:00,238.2298,14.6,12.73,47.84626,-54.09684
2021-10-01 13:39:01+00:00,230.2715,14.6,12.73,47.84626,-54.09684
2021-10-01 13:49:01+00:00,232.2731,14.6,12.73,47.84626,-54.09684
2021-10-01 13:59:01+00:00,231.2198,14.6,12.73,47.84626,-54.09684
2021-10-01 14:09:01+00:00,229.4714,14.6,12.73,47.84626,-54.09684
2021-10-01 14:19:01+00:00,237.8414,14.6,13.05,47.84626,-54.09684
2021-10-01 14:29:01+00:00,245.5631,14.6,13.05,47.84626,-54.09684
2021-10-01 14:39:01+00:00,237.6898,14.6,13.05,47.84626,-54.09684
2021-10-01 14:49:01+00:00,232.4582,14.6,13.05,47.84626,-54.09684
2021-10-01 14:59:01+00:00,239.7548,14.6,13.05,47.84626,-54.09684
2021-10-01 15:09:01+00:00,243.0764,14.6,13.05,47.84626,-54.09684
2021-10-01 15:19:01+00:00,238.1914,14.6,13.05,47.84626,-54.09684
2021-10-01 15:29:01+00:00,244.143,14.6,13.05,47.84626,-54.09684
2021-10-01 15:39:01+00:00,254.3947,14.6,13.05,47.84626,-54.09684
2021-10-01 15:49:01+00:00,252.5581,14.6,13.05,47.84626,-54.09684
2021-10-01 15:59:01+00:00,250.6115,14.6,13.05,47.84626,-54.09684
2021-10-01 16:09:01+00:00,264.7231,14.6,13.05,47.84626,-54.09684
2021-10-01 16:19:01+00:00,274.2864,14.6,13.05,47.84626,-54.09684
2021-10-01 16:29:01+00:00,271.5431,14.6,13.05,47.84626,-54.09684
2021-10-01 16:39:01+00:00,271.5981,14.6,13.05,47.84626,-54.09684
2021-10-01 16:49:01+00:00,286.6981,14.6,13.05,47.84626,-54.09684
2021-10-01 16:59:01+00:00,295.843,14.6,13.05,47.84626,-54.09684
2021-10-01 17:09:01+00:00,293.1631,14.6,13.05,47.84626,-54.09684
2021-10-01 17:19:01+00:00,291.9681,14.6,13.05,47.84626,-54.09684
2021-10-01 17:29:01+00:00,299.5147,14.6,13.05,47.84626,-54.09684
2021-10-01 17:39:01+00:00,299.4047,14.6,13.05,47.84626,-54.09684
2021-10-01 17:49:01+00:00,298.1981,14.6,13.05,47.84626,-54.09684
2021-10-01 17:59:01+00:00,303.2213,14.6,13.05,47.84626,-54.09684
2021-10-01 18:09:01+00:00,308.7147,14.6,13.05,47.84626,-54.09684
2021-10-01 18:19:01+00:00,308.6279,14.6,13.05,47.84626,-54.09684
2021-10-01 18:29:01+00:00,312.2463,14.6,13.05,47.84626,-54.09684
2021-10-01 18:39:01+00:00,318.8864,14.6,13.05,47.84626,-54.09684
2021-10-01 18:49:01+00:00,322.8964,14.6,13.05,47.84626,-54.09684
2021-10-01 18:59:01+00:00,320.663,14.6,13.05,47.84626,-54.09684
2021-10-01 19:09:01+00:00,322.538,14.6,13.05,47.84626,-54.09684
2021-10-01 19:19:01+00:00,324.7946,14.6,12.89,47.84626,-54.09684
2021-10-01 19:29:01+00:00,327.7897,14.59,12.89,47.84626,-54.09684
2021-10-01 19:39:01+00:00,322.853,14.6,12.89,47.84626,-54.09684
2021-10-01 19:49:01+00:00,323.2713,14.6,12.89,47.84626,-54.09684
2021-10-01 19:59:01+00:00,329.5764,14.6,12.89,47.84626,-54.09684
2021-10-01 20:09:01+00:00,333.6880000000001,14.6,12.89,47.84626,-54.09684
2021-10-01 20:19:01+00:00,332.7681,14.6,12.81,47.84626,-54.09684
2021-10-01 20:29:01+00:00,335.158,14.6,12.81,47.84626,-54.09684
2021-10-01 20:39:01+00:00,334.0864,14.6,12.81,47.84626,-54.09684
2021-10-01 20:49:01+00:00,332.8829,14.6,12.81,47.84626,-54.09684
2021-10-01 20:59:01+00:00,328.6196,14.6,12.81,47.84626,-54.09684
2021-10-01 21:09:01+00:00,323.318,14.6,12.81,47.84626,-54.09684
2021-10-01 21:19:01+00:00,319.3264,14.6,12.73,47.84626,-54.09684
2021-10-01 21:29:01+00:00,317.9313,14.6,12.73,47.84626,-54.09684
2021-10-01 21:39:01+00:00,312.9731,14.6,12.73,47.84626,-54.09684
2021-10-01 21:49:01+00:00,310.3798,14.6,12.73,47.84626,-54.09684
2021-10-01 21:59:01+00:00,312.1729,14.6,12.73,47.84626,-54.09684
2021-10-01 22:09:01+00:00,309.928,14.6,12.73,47.84626,-54.09684
2021-10-01 22:19:01+00:00,303.1946,14.6,12.65,47.84626,-54.09684
2021-10-01 22:29:01+00:00,301.4915,14.6,12.65,47.84626,-54.09684
2021-10-01 22:39:01+00:00,301.598,14.6,12.65,47.84626,-54.09684
2021-10-01 22:49:01+00:00,296.798,14.62,12.65,47.84626,-54.09684
2021-10-01 22:59:01+00:00,286.8931,14.64,12.65,47.84626,-54.09684
2021-10-01 23:09:01+00:00,282.4214,14.65,12.65,47.84626,-54.09684
2021-10-01 23:19:01+00:00,282.133,14.6,12.65,47.84626,-54.09684
2021-10-01 23:29:01+00:00,278.7847,14.6,12.65,47.84626,-54.09684
2021-10-01 23:39:01+00:00,273.7063,14.6,12.65,47.84626,-54.09684
2021-10-01 23:49:01+00:00,268.608,14.6,12.65,47.84626,-54.09684
2021-10-01 23:59:01+00:00,265.313,14.6,12.65,47.84626,-54.09684
